DW8162 Weather Reports


time (UTC)temp
C
wind
direction
speed
KPH
gust
KPH
rain 1hr
cm
rain 24hr
cm
rain mn
cm
humidity
%
barometer
mb
20260507082442 10 292 0.0 0.0 0.00 0.38 0.00 57 1011.2
20260507072441 11 291 0.0 4.8 0.00 0.38 0.00 59 1011.4
20260507065439 11 321 0.0 0.0 0.00 0.38 0.00 61 1011.5
20260507062439 11 323 0.0 0.0 0.00 0.38 0.00 60 1011.3
20260507055438 11 327 0.0 3.2 0.00 0.38 0.00 68 1011.3
20260507052436 12 21 0.0 1.6 0.00 0.38 0.00 79 1011.2
20260507045436 12 21 0.0 0.0 0.00 0.38 0.00 79 1011.3
20260507032434 12 21 0.0 0.0 0.00 0.38 0.38 79 1010.7
20260507025433 12 18 0.0 0.0 0.00 0.38 0.38 80 1010.7
20260507022432 12 18 1.6 8.0 0.00 0.38 0.38 79 1010.7
20260507005429 15 304 3.2 4.8 0.00 0.38 0.38 77 1010.4
20260507002429 15 304 0.0 0.0 0.00 0.38 0.38 78 1009.7
20260506235428 16 304 0.0 0.0 0.00 0.38 0.38 78 1009.1
20260506232426 16 304 0.0 0.0 0.00 0.38 0.38 77 1008.4
20260506225426 16 304 0.0 4.8 0.00 0.38 0.38 77 1008.5
20260506222425 17 250 0.0 1.6 0.00 0.38 0.38 79 1008.3
20260506215424 18 231 0.0 0.0 0.00 0.38 0.38 81 1007.7
20260506212423 18 231 0.0 3.2 0.00 0.38 0.38 84 1007.1
20260506205423 18 229 0.0 6.4 0.00 0.38 0.38 85 1006.8
20260506202422 18 228 0.0 0.0 0.00 0.38 0.38 85 1006.5
20260506195421 17 228 0.0 0.0 0.00 0.38 0.38 87 1006.6
20260506192420 17 228 0.0 0.0 0.00 0.38 0.38 87 1006.9
20260506185419 17 228 0.0 0.0 0.03 0.38 0.38 88 1006.9
20260506182418 17 228 0.0 0.0 0.03 0.38 0.38 91 1007.2
20260506172416 16 228 0.0 0.0 0.05 0.36 0.36 90 1007.3
20260506165447 16 227 0.0 0.0 0.03 0.33 0.33 89 1007.3
20260506162445 16 227 0.0 8.0 0.00 0.30 0.30 87 1007.4
20260506152443 16 224 1.6 9.7 0.23 0.30 0.30 88 1007.1
20260506145442 16 200 0.0 3.2 0.20 0.25 0.25 88 1007.4
20260506142441 16 267 3.2 12.9 0.08 0.08 0.08 87 1007.7
20260506135440 16 180 3.2 3.2 0.05 0.05 0.05 86 1007.2
20260506132440 16 226 0.0 0.0 0.00 0.00 0.00 86 1007.6
20260506122438 16 231 0.0 0.0 0.00 0.00 0.00 83 1008.0
20260506115437 16 223 0.0 9.7 0.00 0.00 0.00 78 1008.1
20260506112436 17 243 0.0 6.4 0.00 0.00 0.00 72 1007.9
20260506105435 18 204 0.0 8.0 0.00 0.00 0.00 66 1007.3
20260506102434 19 205 3.2 11.3 0.00 0.00 0.00 61 1006.9
20260506092433 20 232 3.2 3.2 0.00 0.00 0.00 58 1007.0